User: anonymous   Login
Location: Bangkok
(13.7500°N, 100.5170°E)
Time: 11:16:55
(UTC+07:00)
Language:

Cosmos 1898 Rocket - Orbit

View from above orbital plane
View from above orbital plane
View from above satellite
View from above satellite

Ground track
Ground track

The orbit data is extracted from the following two-line orbital elements,

1 18586U 87098B   15113.51753491  .00000480  00000-0  17175-3 0  9992
2 18586 074.0055 301.8970 0021207 186.6382 236.5146 14.36605002434538
Epoch (UTC): 23 April 2015 12:25:15
Eccentricity: 0.0021207
inclination: 74.0055°
perigee height: 754 km
apogee height: 785 km
right ascension of ascending node: 301.8970°
argument of perigee: 186.6382°
revolutions per day: 14.36605002
mean anomaly at epoch: 236.5146°
orbit number at epoch: 43453

The dashed part of the orbit path shows where the satellite is in the earth's shadow,  

DLR